星链-37530(STARLINK-37530)

导读

STARLINK-37530(NORAD编号69131)是美国SpaceX公司星链(Starlink)星座中的一颗第二代Mini版本低轨互联网通信卫星。星链计划旨在构建覆盖全球的低轨卫星互联网系统,提供高带宽、低时延的天基互联网接入服务。该卫星遵循Starlink 2.0Mini版本的命名规则,编号区间从30000起始,采用一箭多星方式由猎鹰9号火箭发射,运行于近地轨道,为全球用户特别是偏远地区提供互联网连接服务,同时也支持部分特殊场景下的通信保障需求。

Basic Information
目录编号:
69131
目录名称:
STARLINK-37530
国际标识:
2026-110H
轨道中心:
EARTH
卫星名称:
星链-37530
卫星全名:
星链-37530(STARLINK-37530)
卫星状态:
在轨 (已飞行69 天)
发射日期:
2026-05-20 UTC
国别 :
美国 (US)
星等 :
--
Orbit Information
数据来源 国际轨道数据 AOE轨道数据
星历时间 2026-07-27T19:38:27+0800
14小时前
查看轨道信息
2026-07-23T02:00:00+0800
5天前
查看轨道信息
半长轴 6843.646km 6843.719km
偏心率 0.0002304 0.0001604
轨道倾角 97.285° 97.286°
近地点辐角 84.081° 95.843°
升交点赤经 44.304° 39.640°
平近点角 276.070° 62.115°
近地点 463.932km 464.484km
远地点 467.086km 466.68km
周期 93.906分钟 93.907分钟
每日圈数 15.334565 15.334321
Detailed Information
固有亮度:
5
最大亮度:
2.5
卫星平台:
Starlink V1.0
覆盖范围:
全球
运营商:
太空探索技术公司
运营商所在国:
美国
制造商(研发单位):
太空探索技术公司
制造商所在国:
美国
使用方式:
暂无
Satellite Introduction
Starlink 计划是 SpaceX 推出的全球卫星互联网项目,通过发射低轨道卫星,为全球尤其是偏远地区提供高速、低延迟的互联网服务。自 2019 年起,Starlink 已部署数千颗卫星,旨在缩小全球数字鸿沟,推动互联网普及。该项目还为军事、航空等行业提供通信支持,带来广泛经济效益。
2D Orbit Map
3D Orbit Map
Orbit Altitude Analysis Chart
Orbit Inclination Analysis Chart
Orbit Comprehensive Analysis Chart
View Comprehensive Chart